Voltar ao catálogo

THORAD DELTA 1 DEB

AtivoSSO
NORAD 8144·DEBRIS·🇺🇸 United States

Lançado Nov 15, 1974 de Vandenberg Space Force Base

Loading…

Próximas Passagens (próximas 24 horas)

TLE

AtualizadoSource: Space-Track

Época: Sep 13, 2026, 20:01 UTC

1 08144U 74089N   26256.83443969  .00000020  00000-0  39006-3 0  9995
2 08144 101.7724 208.1683 0151898  36.1472 350.8996 12.53941761370463

Acompanhe THORAD DELTA 1 DEB em tempo real com AllMySat

Download on the App Store